Location: Oshawa
(43.9000°N, 78.8670°W)
Time: 10:18:40
(UTC-04:00)

S-56A Canister/Altair - All Passes

Search period start: 31 August 2016 00:00
Search period end: 10 September 2016 00:00
Orbit: 640 x 2495 km, 38.9° (Epoch: 29 August)

Date Brightness Start Highest point End Pass type
(mag) Time Alt. Az. Time Alt. Az. Time Alt. Az.
31 Aug - 00:20:34 10° SSW 00:33:52 45° SSE 00:47:05 10° E visible
31 Aug - 02:24:49 10° WSW 02:39:46 68° SSE 02:52:42 10° E visible
31 Aug - 04:31:20 10° W 04:46:03 69° S 04:57:08 10° ESE visible
31 Aug - 06:38:43 10° W 06:50:59 43° SSW 06:59:49 10° SE daylight
31 Aug - 08:49:03 10° W 08:53:38 13° SW 08:57:37 10° SSW daylight
31 Aug - 21:50:21 10° SSE 21:56:56 15° SE 22:03:53 10° E visible
31 Aug - 23:48:03 10° SSW 00:00:47 41° SE 00:13:59 10° E visible
01 Sep - 01:51:45 10° WSW 02:06:32 66° SSE 02:19:57 10° E visible
01 Sep - 03:57:58 10° W 04:12:57 70° S 04:24:42 10° ESE visible
01 Sep - 06:05:12 10° W 06:18:15 48° SSW 06:27:47 10° SE visible
01 Sep - 08:14:32 10° W 08:21:18 17° SW 08:26:54 10° SSW daylight
01 Sep - 21:20:03 10° SE 21:24:17 12° ESE 21:28:43 10° ESE visible
01 Sep - 23:15:40 10° SSW 23:27:47 38° SE 23:40:47 10° E visible
02 Sep - 01:18:48 10° WSW 01:33:18 64° SSE 01:47:07 10° E visible
02 Sep - 03:24:41 10° W 03:39:47 72° S 03:52:10 10° ESE visible
02 Sep - 05:31:44 10° W 05:45:26 52° SSW 05:55:39 10° SE visible
02 Sep - 07:40:25 10° W 07:48:54 21° SW 07:55:41 10° S daylight
02 Sep - 22:43:26 10° SSW 22:54:50 34° SE 23:07:27 10° E visible
03 Sep - 00:45:57 10° SW 01:00:03 62° SSE 01:14:12 10° E visible
03 Sep - 02:51:28 10° W 03:06:33 72° S 03:19:32 10° ESE visible
03 Sep - 04:58:18 10° W 05:12:31 56° SSW 05:23:25 10° SE visible
03 Sep - 07:06:31 10° W 07:16:24 26° SW 07:24:12 10° S daylight
03 Sep - 22:11:21 10° SSW 22:21:57 31° SE 22:33:58 10° E visible
04 Sep - 00:13:14 10° SW 00:26:51 59° SSE 00:41:11 10° E visible
04 Sep - 02:18:20 10° W 02:33:17 73° S 02:46:49 10° E visible
04 Sep - 04:24:54 10° W 04:39:31 60° SSW 04:51:05 10° SE visible
04 Sep - 06:32:45 10° W 06:43:49 30° SW 06:52:31 10° SSE daylight
04 Sep - 21:39:26 10° S 21:49:08 27° SE 22:00:21 10° E visible
04 Sep - 23:40:36 10° SW 23:53:41 56° SSE 00:08:04 10° E visible
05 Sep - 01:45:16 10° WSW 02:00:00 72° S 02:14:01 10° E visible
05 Sep - 03:51:36 10° W 04:06:26 63° SSW 04:18:38 10° ESE visible
05 Sep - 05:59:05 10° W 06:11:09 34° SW 06:20:40 10° SSE visible
05 Sep - 21:07:43 10° S 21:16:26 23° SE 21:26:34 10° E visible
05 Sep - 23:08:06 10° SW 23:20:34 52° SSE 23:34:52 10° E visible
06 Sep - 01:12:19 10° WSW 01:26:41 72° S 01:41:06 10° E visible
06 Sep - 03:18:21 10° W 03:33:16 66° SSW 03:46:06 10° ESE visible
06 Sep - 05:25:31 10° W 05:38:22 38° SW 05:48:41 10° SSE visible
06 Sep - 07:38:19 10° WSW 07:41:11 11° WSW 07:43:52 10° SW daylight
06 Sep - 20:36:15 10° SSE 20:43:48 20° SE 20:52:33 10° E visible
06 Sep - 22:35:43 10° SW 22:47:31 48° SSE 23:01:34 10° E visible
07 Sep - 00:39:28 10° WSW 00:53:24 71° S 01:08:06 10° E visible
07 Sep - 02:45:11 10° W 03:00:02 68° SSW 03:13:28 10° ESE visible
07 Sep - 04:52:03 10° W 05:05:31 42° SW 05:16:33 10° SSE visible
07 Sep - 07:02:37 10° W 07:08:43 14° SW 07:14:09 10° SSW daylight
07 Sep - 20:05:08 10° SSE 20:11:15 16° SE 20:18:13 10° E visible
07 Sep - 22:03:26 10° SSW 22:14:33 44° SE 22:28:12 10° E visible
08 Sep - 00:06:43 10° WSW 00:20:07 69° SSE 00:35:02 10° E visible
08 Sep - 02:12:06 10° W 02:26:46 70° S 02:40:43 10° ESE visible
08 Sep - 04:18:40 10° W 04:32:34 46° SSW 04:44:19 10° SE visible
08 Sep - 06:28:04 10° W 06:36:11 18° SW 06:43:16 10° SSW daylight
08 Sep - 19:34:43 10° SE 19:38:46 12° ESE 19:43:13 10° ESE daylight
08 Sep - 21:31:17 10° SSW 21:41:40 40° SE 21:54:44 10° E visible
08 Sep - 23:34:03 10° WSW 23:46:54 67° SSE 00:01:51 10° E visible
09 Sep - 01:39:06 10° W 01:53:29 71° S 02:07:51 10° ESE visible
09 Sep - 03:45:21 10° W 03:59:32 50° SSW 04:11:56 10° SE visible
09 Sep - 05:53:56 10° W 06:03:33 21° SW 06:11:55 10° S visible
09 Sep - 20:59:16 10° SSW 21:08:53 36° SE 21:21:12 10° E visible
09 Sep - 23:01:31 10° WSW 23:13:43 64° SSE 23:28:36 10° E visible
